Hourly Weather Roundup
Issued by NWS Central Illinois

Home | Current Version | Previous Version | Text Only | Print | Product List | Glossary Off
Versions: 1 2 3 4 5 6 7 8 9 10 11 12 13 14 15 16 17 18 19 20 21 22 23 24 25 26 27 28 29 30 31 32 33 34 35 36 37 38 39 40 41 42 43 44 45 46 47 48 49 50

000
NZUS43 KILX 261410
HWRILX

Area Weather Roundup
National Weather Service Lincoln IL
900 AM CDT WED APR 26 2017

NOTE:  "FAIR" indicates few or no clouds below 12,000 feet, with
       no sigificant weather and/or obstructions to visibility.


CITY           SKY/WX    TMP DP  RH WIND       PRES   REMARKS
Bloomington    CLOUDY    66  57  72 S22       29.44S
Champaign      MOSUNNY   73  55  53 S21       29.45F
Danville       CLOUDY    70  57  62 S20G30    29.47F
Decatur        CLOUDY    69  58  67 S20       29.46R
Effingham      PTSUNNY   70  59  67 SE15G22   29.51F
Flora          SUNNY     71  59  66 S18G24    29.53F
Galesburg      LGT RAIN  62  60  92 SW14G20   29.44S
Jacksonville   PTSUNNY   63  60  90 SW9       29.49S
Lacon          CLOUDY    62  60  94 SW8       29.44R
Lawrenceville  SUNNY     71  58  63 S20       29.57F
Litchfield     CLOUDY    66  55  69 S9        29.48S
$$


CITY           SKY/WX    TMP DP  RH WIND       PRES   REMARKS
Lincoln        CLOUDY    68  59  73 SW6       29.46R
Macomb         CLOUDY    63  61  94 W16       29.48S
Mattoon        MOSUNNY   69  58  67 S18G28    29.47F
Mt Carmel AP   SUNNY     70  57  63 S17       29.57F
Olney-Noble AP MOSUNNY   70  62  75 S18G25    29.54F
Paris AP       MOSUNNY   71  58  64 SE20G28   29.51F
Peoria         CLOUDY    64  61  90 SW10      29.47R
Pontiac        MOSUNNY   69  60  71 S18G25    29.43R
Rantoul        MOSUNNY   73  58  59 S23G29    29.44F
Robinson       SUNNY     70  58  65 S18       29.56F
Springfield    CLOUDY    67  57  70 SW10      29.48R
Taylorville    CLOUDY    68  55  64 S16       29.48R
$$

...REGIONAL REPORTS...


CITY           SKY/WX    TMP DP  RH WIND       PRES   REMARKS
Chicago O`Hare CLOUDY    68  56  65 S21       29.42R
Kankakee       CLOUDY    71  57  60 SE18G26   29.42F
Moline         CLOUDY    60  57  89 SW10      29.43R FOG
Mount Sterling MOSUNNY   62  59  90 W9        29.47S
Mount Vernon   MOSUNNY   71  60  68 S10G20    29.53F
Pittsfield     CLOUDY    62  60  93 SW8       29.50S
Quincy         CLOUDY    62  59  90 W8        29.48R
Rockford       LGT RAIN  60  57  89 SE8       29.39F
$$


CITY           SKY/WX    TMP DP  RH WIND       PRES   REMARKS
Burlington     CLOUDY    54  53  97 W10       29.47R
Cedar Rapids   LGT RAIN  48  48 100 W16       29.45R
Des Moines     CLOUDY    43  40  89 NW16      29.55R
Kirksville     CLOUDY    48  46  93 NW14      29.54R
Ottumwa        CLOUDY    46  44  93 W14       29.52R
St Louis       PTSUNNY   68  56  65 SW9       29.52R
$$


CITY           SKY/WX    TMP DP  RH WIND       PRES   REMARKS
Terre Haute    SUNNY     70  57  63 S18G24    29.56F
Evansville     SUNNY     70  58  65 S13       29.62F
Indianapolis   PTSUNNY   66  57  72 S14G22    29.59F
Lafayette      NOT AVBL
Madison        RAIN      58  56  93 S17       29.40R FOG
Milwaukee      PTSUNNY   66  56  70 S13       29.41F
$$





USA.gov is the U.S. government's official web portal to all federal, state and local government web resources and services.